TimeEST,TemperatureF,Dew PointF,Humidity,Sea Level PressureIn,VisibilityMPH,Wind Direction,Wind SpeedMPH,Gust SpeedMPH,PrecipitationIn,Events,Conditions,WindDirDegrees,DateUTC
12:51 AM,37.9,34.0,86,30.17,9.0,South,4.6,-,N/A,,Partly Cloudy,170,2012-11-21 05:51:00
1:51 AM,37.9,35.1,89,30.18,7.0,Calm,Calm,-,N/A,,Scattered Clouds,0,2012-11-21 06:51:00
2:51 AM,39.9,35.1,83,30.20,10.0,Calm,Calm,-,N/A,,Mostly Cloudy,0,2012-11-21 07:51:00
3:51 AM,37.0,35.1,93,30.20,7.0,Calm,Calm,-,N/A,,Scattered Clouds,0,2012-11-21 08:51:00
4:51 AM,35.1,32.0,89,30.21,9.0,Calm,Calm,-,N/A,,Scattered Clouds,0,2012-11-21 09:51:00
5:51 AM,35.1,32.0,89,30.23,9.0,Calm,Calm,-,N/A,,Mostly Cloudy,0,2012-11-21 10:51:00
6:51 AM,34.0,30.9,89,30.24,10.0,South,3.5,-,N/A,,Partly Cloudy,170,2012-11-21 11:51:00
7:51 AM,34.0,32.0,92,30.26,8.0,South,3.5,-,N/A,,Partly Cloudy,180,2012-11-21 12:51:00
8:51 AM,39.9,36.0,86,30.27,7.0,South,3.5,-,0.00,,Clear,170,2012-11-21 13:51:00
9:51 AM,46.9,39.9,77,30.27,7.0,Calm,Calm,-,N/A,,Clear,0,2012-11-21 14:51:00
10:51 AM,53.1,41.0,64,30.27,7.0,Calm,Calm,-,N/A,,Clear,0,2012-11-21 15:51:00
11:51 AM,55.9,37.0,49,30.25,10.0,Calm,Calm,-,N/A,,Partly Cloudy,0,2012-11-21 16:51:00
12:51 PM,57.2,35.6,44,30.23,10.0,Calm,Calm,-,N/A,,Partly Cloudy,0,2012-11-21 17:51:00
1:51 PM,60.1,36.0,41,30.24,10.0,NNW,4.6,-,N/A,,Clear,330,2012-11-21 18:51:00
2:51 PM,55.9,39.9,55,30.23,10.0,North,8.1,-,N/A,,Clear,360,2012-11-21 19:51:00
3:51 PM,54.0,37.9,55,30.23,10.0,North,5.8,-,N/A,,Partly Cloudy,10,2012-11-21 20:51:00
4:51 PM,50.0,36.0,59,30.25,10.0,NNE,4.6,-,N/A,,Partly Cloudy,20,2012-11-21 21:51:00
5:51 PM,48.9,36.0,61,30.24,10.0,ESE,3.5,-,N/A,,Partly Cloudy,110,2012-11-21 22:51:00
6:51 PM,48.0,36.0,63,30.23,10.0,SE,4.6,-,N/A,,Scattered Clouds,140,2012-11-21 23:51:00
7:51 PM,43.0,36.0,76,30.24,9.0,SSE,3.5,-,N/A,,Scattered Clouds,150,2012-11-22 00:51:00
8:51 PM,39.9,35.1,83,30.24,8.0,SSE,8.1,-,N/A,,Partly Cloudy,160,2012-11-22 01:51:00
9:51 PM,43.0,35.1,74,30.24,10.0,Calm,Calm,-,N/A,,Partly Cloudy,0,2012-11-22 02:51:00
10:51 PM,39.9,34.0,79,30.23,10.0,South,3.5,-,N/A,,Clear,180,2012-11-22 03:51:00
11:51 PM,39.0,34.0,82,30.23,10.0,SSE,6.9,-,N/A,,Clear,160,2012-11-22 04:51:00